Salem, OR

11:04 AM PDT on June 22, 2018 (GMT -0700)
McNary

Weather History for KSLE - September, 2017

Change the Weather History Date:

Thursday, September 14, 2017

  Actual Average Record
Temperature  
Mean Temperature 64 °F 63 °F  
Max Temperature 78 °F 78 °F 98 °F (1937)
Min Temperature 50 °F 49 °F 35 °F (1970)
Degree Days  
Heating Degree Days 1 3  
Month to date heating degree days 2 32  
Since 1 July heating degree days 4 88  
Cooling Degree Days 0 1  
Month to date cooling degree days 116 25  
Year to date cooling degree days 636 277  
Growing Degree Days 14 (Base 50)    
Moisture  
Dew Point 45 °F    
Average Humidity 51    
Maximum Humidity 71    
Minimum Humidity 31    
Precipitation  
Precipitation 0.00 in 0.04 in 0.97 in (1935)
Month to date precipitation 0.02 0.47  
Year to date precipitation 33.47 22.47  
Sea Level Pressure  
Sea Level Pressure 29.93 in    
Wind  
Wind Speed 4 mph (NW)    
Max Wind Speed 13 mph    
Max Gust Speed 18 mph    
Visibility 10 miles    
Events      
T = Trace of Precipitation, MM = Missing Value Source: NWS Daily Summary

Daily Weather History Graph

Daily Weather History Graph

Search for Another Location

Airport or City:

Astronomy

Sep. 14, 2017 Rise Set
Actual Time 6:49 AM PDT 7:23 PM PDT
Civil Twilight 6:20 AM PDT 7:53 PM PDT
Nautical Twilight 5:45 AM PDT 8:28 PM PDT
Astronomical Twilight 5:09 AM PDT 9:04 PM PDT
Moon 12:40 AM PDT (9/14) 3:58 PM PDT (9/14)
Length of Visible Light 13h 32m
Length of Day
12h 34m
Waning Crescent, 33% of the Moon is Illuminated
Sep 14
Waning Crescent
Sep 19
New
Sep 27
First Quarter
Oct 5
Full
Oct 12
Last Quarter

Hourly Weather History & Observations

Time (PDT) Temp. Dew Point Humidity Pressure Visibility Wind Dir Wind Speed Gust Speed Precip Events Conditions
12:56 AM 60.1 °F 44.1 °F 55% 29.89 in 10.0 mi NNW 3.5 mph - N/A   Clear
1:56 AM 60.1 °F 44.1 °F 55% 29.90 in 10.0 mi Calm Calm - N/A   Clear
2:56 AM 59.0 °F 45.0 °F 60% 29.89 in 10.0 mi North 3.5 mph - N/A   Clear
3:56 AM 57.9 °F 45.0 °F 62% 29.89 in 10.0 mi Calm Calm - N/A   Clear
4:56 AM 57.9 °F 45.0 °F 62% 29.90 in 10.0 mi West 3.5 mph - N/A   Clear
5:56 AM 55.0 °F 44.1 °F 67% 29.91 in 10.0 mi Calm Calm - N/A   Clear
6:56 AM 53.1 °F 44.1 °F 71% 29.92 in 10.0 mi Calm Calm - N/A   Clear
7:56 AM 53.1 °F 45.0 °F 74% 29.94 in 10.0 mi Calm Calm - N/A   Clear
8:56 AM 60.1 °F 46.0 °F 60% 29.95 in 10.0 mi Calm Calm - N/A   Clear
9:56 AM 64.0 °F 46.0 °F 52% 29.95 in 10.0 mi Calm Calm - N/A   Clear
10:56 AM 66.0 °F 46.0 °F 48% 29.94 in 10.0 mi ESE 3.5 mph - N/A   Clear
11:56 AM 70.0 °F 46.0 °F 42% 29.93 in 10.0 mi Variable 4.6 mph - N/A   Partly Cloudy
12:56 PM 72.0 °F 45.0 °F 38% 29.92 in 10.0 mi Variable 5.8 mph - N/A   Clear
1:56 PM 73.9 °F 44.1 °F 34% 29.92 in 10.0 mi North 9.2 mph - N/A   Clear
2:56 PM 75.0 °F 44.1 °F 33% 29.91 in 10.0 mi North 8.1 mph - N/A   Clear
3:56 PM 75.9 °F 43.0 °F 31% 29.90 in 10.0 mi North 10.4 mph - N/A   Scattered Clouds
4:56 PM 75.9 °F 43.0 °F 31% 29.89 in 10.0 mi WNW 4.6 mph - N/A   Partly Cloudy
5:56 PM 73.0 °F 42.1 °F 33% 29.91 in 10.0 mi NW 6.9 mph - N/A   Clear
6:56 PM 71.1 °F 44.1 °F 38% 29.93 in 10.0 mi WNW 10.4 mph - N/A   Partly Cloudy
7:56 PM 66.0 °F 46.0 °F 48% 29.94 in 10.0 mi WNW 5.8 mph - N/A   Clear
8:56 PM 64.0 °F 48.0 °F 56% 29.96 in 10.0 mi WNW 4.6 mph - N/A   Clear
9:56 PM 57.9 °F 46.9 °F 67% 29.97 in 10.0 mi Calm Calm - N/A   Clear
10:56 PM 57.9 °F 46.9 °F 67% 29.98 in 10.0 mi Calm Calm - N/A   Clear
11:56 PM 55.9 °F 46.9 °F 72% 29.99 in 10.0 mi Calm Calm - N/A   Clear